Location: Ford County Road and Bridge Department
(37.7686°N, 99.9762°W)
Time: 14:59:34
(UTC+00:00)

Cosmos 372 Rocket - Pass Details

Date: 18 January 2020
Orbit: 737 x 769 km, 74.1° (Epoch: 22 February)

Event Time Altitude Azimuth Distance (km) Brightness Sun altitude
Rises 00:26:00 0° 201° (SSW) 3,157 7.8 -8.0°
Reaches altitude 10° 00:28:21 10° 203° (SSW) 2,241 7.1 -8.4°
Maximum altitude 00:33:25 75° 288° (WNW) 772 4.2 -9.4°
Drops below altitude 10° 00:38:33 10° 15° (NNE) 2,272 6.1 -10.3°
Sets 00:40:57 0° 17° (NNE) 3,205 6.9 -10.8°
